Location: Bastrop State Park
(30.1090°N, 97.2819°W)
Time: 08:04:14
(UTC-06:00)

ISS - Visible Passes

Search period start: 21 November 2017 00:00
Search period end: 01 December 2017 00:00
Orbit: 402 x 407 km, 51.6° (Epoch: 21 November)

Date Brightness Start Highest point End Pass type
(mag) Time Alt. Az. Time Alt. Az. Time Alt. Az.
21 Nov -2.2 05:18:39 27° S 05:18:39 27° S 05:20:25 10° SSE visible
22 Nov -1.2 19:21:15 10° SSW 19:21:55 15° SSW 19:21:55 15° SSW visible
23 Nov -1.9 18:30:04 10° SSE 18:32:08 16° SE 18:32:21 16° ESE visible
24 Nov -3.0 19:12:48 10° SW 19:15:24 50° WSW 19:15:24 50° WSW visible
25 Nov -3.5 18:20:36 10° SSW 18:23:46 48° SE 18:25:39 21° ENE visible
26 Nov -2.0 19:05:12 10° W 19:07:55 23° NW 19:08:29 22° NNW visible
27 Nov -3.1 18:12:19 10° WSW 18:15:29 49° NW 18:18:33 11° NNE visible
28 Nov -1.0 18:59:04 10° NW 18:59:55 11° NNW 19:00:47 10° NNW visible
29 Nov -1.5 18:04:54 10° W 18:07:20 19° NW 18:09:47 10° N visible
